[[{"header":{"parameterUnit":"m.s-1","parameterCategory":2,"la1":30.2991,"la2":30.254,"lo1":-89.0895,"lo2":-89.0444,"dy":0.0017,"dx":0.0017,"nx":28,"ny":28,"refTime":"2024-05-15T21:00:00:Z","depth":"0","parameterNumber":2,"parameterNumberName":"U-component_of_CURRENTS"},"data":[0,0,0,0,0,0,0,0,0,0,0,0,0,0,0,0,0,0,0,0,0,0,0,0,0,0,0,0,0,0,0,0,0,0,0,0,0,0,0,0,0,0,0,0,0,0,0,0,0,0,0,0,0,0,0,0,0,0,-0.2077,-0.2077,0,-0.2073,-0.2073,-0.2072,-0.2052,-0.2052,-0.2051,-0.2051,-0.1953,-0.195,-0.1948,0,0,0,0,0,0,0,0,0,0,0,0,0,-0.2047,-0.2047,-0.2077,-0.2077,-0.2077,-0.2073,-0.2073,-0.2072,-0.2052,-0.2052,-0.2051,-0.2051,-0.1953,-0.1951,-0.1948,0,0,0,0,0,0,0,0,0,0,0,0,0,-0.2051,-0.2048,-0.2076,-0.2068,-0.2067,-0.2073,-0.2073,-0.2072,-0.2052,-0.2052,-0.2051,-0.2051,-0.1954,-0.1951,-0.1947,-0.1934,0,0,-0.1937,-0.1935,0,0,0,0,0,0,0,0,-0.2051,-0.2052,-0.2069,-0.2069,-0.2068,-0.2064,-0.2026,-0.2022,-0.2052,-0.2056,-0.2051,-0.2051,-0.1983,-0.1977,-0.1976,-0.1929,-0.1925,-0.1936,-0.1934,-0.1933,-0.1932,0,0,0,0,0,0,0,-0.2051,-0.2052,-0.2073,-0.2069,-0.2069,-0.2058,-0.2058,-0.2025,-0.2018,-0.2055,-0.2054,-0.2058,-0.1982,-0.1979,-0.1973,-0.1924,-0.1936,-0.1933,-0.1931,-0.193,-0.1909,-0.191,0,0,0,0,0,0,-0.2057,-0.2052,-0.2073,-0.2073,-0.2061,-0.2059,-0.2059,-0.2064,-0.2021,-0.2015,-0.2058,-0.2057,-0.1985,-0.1977,-0.1969,-0.1996,-0.1933,-0.1929,-0.1927,-0.1907,-0.1909,-0.1911,0,0,0,0,0,0,-0.2057,-0.2059,-0.2073,-0.2064,-0.2065,-0.206,-0.2066,-0.2064,-0.2063,-0.2024,-0.2016,-0.2058,-0.1985,-0.1974,-0.196,-0.199,-0.1928,-0.1925,-0.1905,-0.1908,-0.191,-0.2021,0,0,0,0,0,0,-0.2056,-0.2059,-0.2063,-0.2064,-0.2066,-0.209,-0.2067,-0.2065,-0.2066,-0.2064,-0.2022,-0.2012,-0.1984,-0.1966,-0.1957,-0.1984,-0.1922,-0.1903,-0.1906,-0.1909,-0.2015,-0.2026,-0.2036,0,0,0,0,0,-0.2055,-0.2067,-0.2063,-0.2066,-0.2073,-0.2091,-0.2091,-0.2084,-0.2067,-0.2078,-0.2053,-0.2014,-0.1978,-0.1965,-0.1953,-0.198,-0.1902,-0.1906,-0.1909,-0.201,-0.2024,-0.2036,0,0,0,0,0,0,-0.2061,-0.2067,-0.2062,-0.2077,-0.2089,-0.2089,-0.2095,-0.2087,-0.2077,-0.2071,-0.2027,-0.2017,-0.202,-0.1983,-0.1969,-0.1985,-0.1936,-0.1937,-0.2017,-0.2029,-0.204,-0.2051,-0.1919,0,0,0,0,0,-0.2064,-0.207,-0.2081,-0.2092,-0.2099,-0.2095,-0.2099,-0.2099,-0.2092,-0.2087,-0.2062,-0.2036,-0.2026,-0.2014,-0.1995,-0.1994,-0.1973,-0.2007,-0.2018,-0.2027,-0.203,-0.2023,-0.2033,-0.1922,-0.1922,-0.1922,0,0,-0.2069,-0.2073,-0.2076,-0.2093,-0.2097,-0.2126,-0.2096,-0.2112,-0.214,-0.2076,-0.2095,-0.2069,-0.2035,-0.2048,-0.2045,-0.2019,-0.2054,-0.2031,-0.204,-0.2037,-0.2028,-0.2038,-0.2048,-0.1925,-0.1924,-0.1924,0,0,-0.2092,-0.2088,-0.2105,-0.2121,-0.2138,-0.2145,-0.2152,-0.2161,-0.2167,-0.2183,-0.2152,-0.2149,-0.2121,-0.2118,-0.2108,-0.2162,-0.2112,-0.2151,-0.221,-0.2205,-0.2214,-0.2221,-0.2238,-0.2245,-0.2155,-0.2155,-0.2155,0,-0.2102,-0.2125,-0.2115,-0.2145,-0.2168,-0.2158,-0.2199,-0.2209,-0.2215,-0.2225,-0.2203,-0.2191,-0.2162,-0.2184,-0.2209,-0.2187,-0.2175,-0.2166,-0.2219,-0.2226,-0.2231,-0.2246,-0.2253,-0.2161,-0.216,-0.216,-0.2159,0,-0.2136,-0.2166,-0.2181,-0.2217,-0.224,-0.2272,-0.2293,-0.231,-0.231,-0.232,-0.2339,-0.2308,-0.2295,-0.2298,-0.2268,-0.23,-0.2278,-0.2236,-0.2188,-0.2249,-0.2261,-0.2267,-0.2169,-0.2167,-0.2165,-0.2164,0,0,-0.2136,-0.2196,-0.2202,-0.2239,-0.2284,-0.2308,-0.2358,-0.2402,-0.243,-0.2433,-0.2466,-0.2462,-0.2429,-0.2416,-0.2381,-0.2383,-0.2426,-0.2329,-0.2326,-0.2349,-0.2429,-0.2294,-0.2287,-0.2385,-0.2386,-0.2387,-0.2431,0,-0.2172,-0.2246,-0.2267,-0.2346,-0.239,-0.2408,-0.2457,-0.2491,-0.2508,-0.2535,-0.2518,-0.2525,-0.248,-0.2466,-0.2467,-0.2426,-0.2441,-0.2419,-0.2362,-0.2361,-0.2235,-0.2288,-0.2118,-0.2131,-0.2436,-0.2437,-0.2438,0,-0.2192,-0.2248,-0.2329,-0.242,-0.2439,-0.2476,-0.2542,-0.2584,-0.2619,-0.2628,-0.2632,-0.2608,-0.2613,-0.2555,-0.2539,-0.2522,-0.2488,-0.2463,-0.2463,-0.2297,-0.2235,-0.2112,-0.2129,-0.2097,-0.2446,-0.2445,-0.2445,0,-0.2183,-0.2288,-0.2355,-0.2385,-0.248,-0.2509,-0.2548,-0.2599,-0.2634,-0.2667,-0.268,-0.2686,-0.2663,-0.2638,-0.2571,-0.2556,-0.2549,-0.2518,-0.2381,-0.2373,-0.2194,-0.2166,-0.2167,-0.2518,-0.2517,-0.2517,-0.2517,0,-0.2201,-0.2249,-0.235,-0.2382,-0.2457,-0.2514,-0.2576,-0.2611,-0.2661,-0.2688,-0.2704,-0.2702,-0.2675,-0.2655,-0.261,-0.2503,-0.2575,-0.2401,-0.2369,-0.2229,-0.2205,-0.2137,-0.2163,-0.2519,-0.2519,-0.2518,-0.2518,0,-0.2138,-0.2223,-0.2293,-0.2405,-0.2447,-0.2475,-0.2571,-0.2602,-0.2659,-0.2688,-0.2692,-0.2713,-0.2659,-0.2638,-0.2592,-0.2521,-0.2393,-0.2406,-0.2252,-0.2198,-0.2,-0.2038,-0.2009,-0.1962,-0.2266,-0.2263,-0.226,0,-0.2097,-0.213,-0.2269,-0.2307,-0.2344,-0.2418,-0.2464,-0.2569,-0.2599,-0.267,-0.2665,-0.2649,-0.2563,-0.2472,-0.2362,-0.2269,-0.2274,-0.2077,-0.2002,-0.197,-0.1992,-0.2031,-0.1999,-0.1842,-0.1836,-0.1831,-0.1827,0,-0.1988,-0.2035,-0.2092,-0.218,-0.2241,-0.2321,-0.239,-0.2423,-0.2522,-0.2522,-0.2469,-0.2407,-0.2332,-0.2117,-0.2031,-0.1966,-0.199,-0.197,-0.1974,-0.1686,-0.1694,-0.1637,-0.1869,-0.1784,-0.1788,-0.1791,-0.1794,-0.1796,-0.1859,-0.1868,-0.1941,-0.2005,-0.209,-0.2134,-0.213,-0.2188,-0.2178,-0.2102,-0.2179,-0.1997,-0.1909,-0.1716,-0.168,-0.1538,-0.1663,-0.1453,-0.1518,-0.1576,-0.1467,-0.1606,-0.1447,-0.1449,-0.1451,-0.1453,-0.1454,0,-0.1656,-0.1698,-0.1755,-0.1823,-0.1831,-0.1945,-0.201,-0.1947,-0.1836,-0.1785,-0.1656,-0.1464,-0.1291,-0.128,-0.1167,-0.1102,-0.1123,-0.1102,-0.1139,-0.1139,-0.127,-0.1181,-0.0909,-0.0909,-0.0909,-0.091,-0.091,-0.091,-0.1548,-0.1524,-0.1572,-0.1529,-0.1575,-0.1537,-0.153,-0.145,-0.1389,-0.113,-0.0993,-0.095,-0.0996,-0.1022,-0.0937,-0.0898,-0.0937,-0.0876,-0.0994,-0.1094,-0.1133,-0.117,-0.1091,-0.0805,-0.0805,-0.0768,-0.0768,-0.0768]},{"header":{"parameterUnit":"m.s-1","parameterCategory":2,"la1":30.2991,"la2":30.254,"lo1":-89.0895,"lo2":-89.0444,"dy":0.0017,"dx":0.0017,"nx":28,"ny":28,"refTime":"2024-05-15T21:00:00:Z","depth":"0","parameterNumber":3,"parameterNumberName":"V-component_of_CURRENTS"},"data":[0,0,0,0,0,0,0,0,0,0,0,0,0,0,0,0,0,0,0,0,0,0,0,0,0,0,0,0,0,0,0,0,0,0,0,0,0,0,0,0,0,0,0,0,0,0,0,0,0,0,0,0,0,0,0,0,0,0,0.0177,0.0178,0,0.0256,0.0257,0.0258,0.0309,0.0309,0.031,0.031,0.0422,0.0424,0.0427,0,0,0,0,0,0,0,0,0,0,0,0,0,0.0118,0.0119,0.0177,0.0178,0.0179,0.0256,0.0257,0.0259,0.0309,0.0309,0.031,0.031,0.0421,0.0424,0.0428,0,0,0,0,0,0,0,0,0,0,0,0,0,0.0167,0.0119,0.0177,0.0212,0.0216,0.0256,0.0257,0.0259,0.0309,0.0309,0.031,0.031,0.042,0.0424,0.0428,0.045,0,0,0.0441,0.0443,0,0,0,0,0,0,0,0,0.0164,0.0169,0.0206,0.021,0.0214,0.0272,0.0278,0.0324,0.0309,0.0276,0.031,0.031,0.0373,0.0381,0.0398,0.0455,0.046,0.0441,0.0444,0.0446,0.0447,0,0,0,0,0,0,0,0.016,0.0166,0.021,0.0207,0.0212,0.024,0.0247,0.0287,0.0324,0.0279,0.0282,0.0288,0.0376,0.0394,0.0401,0.0462,0.0441,0.0445,0.0448,0.0449,0.0561,0.0561,0,0,0,0,0,0,0.0144,0.0163,0.0208,0.0213,0.0187,0.0241,0.0249,0.0254,0.0323,0.0333,0.0288,0.029,0.0386,0.0396,0.0405,0.0441,0.0446,0.045,0.0452,0.056,0.0561,0.0561,0,0,0,0,0,0,0.0143,0.0147,0.0205,0.0188,0.0197,0.0241,0.0247,0.0256,0.0271,0.0329,0.034,0.0294,0.0387,0.0399,0.0439,0.0445,0.0452,0.0456,0.056,0.0561,0.0561,0.0509,0,0,0,0,0,0,0.014,0.0146,0.0144,0.0187,0.0197,0.022,0.0247,0.0257,0.0274,0.0278,0.0339,0.0349,0.0388,0.0433,0.0443,0.0451,0.0459,0.0559,0.056,0.0561,0.051,0.0508,0.0506,0,0,0,0,0,0.0138,0.0131,0.0144,0.0149,0.0193,0.022,0.0228,0.0261,0.0274,0.0277,0.0321,0.0347,0.0445,0.0436,0.0449,0.0458,0.0559,0.056,0.0561,0.0512,0.0509,0.0506,0,0,0,0,0,0,0.0106,0.0136,0.0152,0.0155,0.0181,0.0227,0.0231,0.0255,0.0292,0.0296,0.0351,0.0365,0.0405,0.0438,0.0426,0.0494,0.0507,0.0511,0.0465,0.0463,0.0461,0.044,0.0463,0,0,0,0,0,0.0097,0.0099,0.0135,0.0138,0.0146,0.0187,0.0202,0.0225,0.0263,0.0279,0.0323,0.0372,0.0419,0.0444,0.0487,0.0521,0.0533,0.0537,0.0535,0.0532,0.0525,0.0539,0.0537,0.0564,0.0564,0.0564,0,0,0.0086,0.0102,0.0104,0.0131,0.0153,0.0164,0.0197,0.0212,0.023,0.0286,0.032,0.0364,0.0426,0.0466,0.0487,0.0494,0.0532,0.0534,0.0531,0.0525,0.054,0.0537,0.0535,0.0565,0.0565,0.0565,0,0,0.006,0.0077,0.0068,0.0087,0.0113,0.0141,0.0141,0.0184,0.021,0.0248,0.0295,0.0339,0.0407,0.0453,0.0486,0.0497,0.0518,0.0513,0.0487,0.05,0.0498,0.0495,0.0502,0.0501,0.0512,0.0512,0.0512,0,0.0045,0.0042,0.007,0.0069,0.008,0.0126,0.0123,0.016,0.0213,0.023,0.025,0.0348,0.0403,0.0454,0.0464,0.0492,0.0495,0.0489,0.0495,0.0493,0.0491,0.0499,0.0499,0.051,0.051,0.0511,0.0511,0,0.0016,0.0016,0.0011,0.0026,0.0042,0.0047,0.0094,0.0116,0.0151,0.019,0.0241,0.0315,0.0368,0.04,0.0441,0.0465,0.0467,0.0486,0.0494,0.0485,0.0495,0.0495,0.0507,0.0507,0.0508,0.0509,0,0,-0.0024,-0.0013,-0.0016,-0.0022,0.0019,0.0021,0.0052,0.0086,0.0087,0.0161,0.0177,0.0276,0.0306,0.0346,0.0401,0.0426,0.043,0.0447,0.0448,0.044,0.0445,0.0465,0.0468,0.0439,0.0439,0.0439,0.0453,0,-0.0056,-0.0081,-0.0057,-0.0073,-0.0081,-0.0033,-0.0019,0.0021,0.0062,0.0091,0.0183,0.0222,0.029,0.0307,0.0346,0.0413,0.0428,0.0423,0.0468,0.0469,0.0477,0.0468,0.05,0.0517,0.0454,0.0454,0.0454,0,-0.009,-0.0105,-0.0131,-0.0139,-0.014,-0.0138,-0.0127,-0.0103,-0.0039,-0.0007,0.0056,0.0118,0.0198,0.0241,0.0339,0.0327,0.0375,0.0424,0.0425,0.0461,0.0489,0.0519,0.052,0.0635,0.0454,0.0454,0.0454,0,-0.0142,-0.0157,-0.0186,-0.0182,-0.0178,-0.0184,-0.0177,-0.0136,-0.0134,-0.0066,-0.0068,0.0038,0.0084,0.0167,0.0293,0.0302,0.0383,0.0408,0.0468,0.047,0.0515,0.0522,0.0623,0.0447,0.0447,0.0447,0.0447,0,-0.018,-0.0203,-0.0218,-0.0233,-0.0285,-0.0248,-0.0287,-0.0261,-0.0231,-0.0239,-0.0127,-0.0107,0.0062,0.0142,0.0251,0.0366,0.0351,0.0457,0.0474,0.0499,0.0504,0.0622,0.0664,0.0447,0.0447,0.0447,0.0447,0,-0.0216,-0.0223,-0.0268,-0.0292,-0.0309,-0.0341,-0.0367,-0.0394,-0.0354,-0.036,-0.0342,-0.0219,-0.0099,0.0055,0.0202,0.0303,0.0481,0.0451,0.0471,0.0491,0.0657,0.0694,0.0772,0.0838,0.0515,0.0515,0.0516,0,-0.0229,-0.0255,-0.0324,-0.0377,-0.0391,-0.0437,-0.0475,-0.0452,-0.0472,-0.0426,-0.0433,-0.0318,-0.0206,0.0028,0.0231,0.0416,0.0499,0.0522,0.0555,0.0667,0.0721,0.0736,0.0787,0.0595,0.0596,0.0597,0.0598,0,-0.0255,-0.0286,-0.0335,-0.0448,-0.0511,-0.0576,-0.0617,-0.0648,-0.0615,-0.0595,-0.0521,-0.0421,-0.0181,0.0087,0.032,0.0427,0.0607,0.0544,0.0661,0.0789,0.0811,0.0882,0.0579,0.0606,0.0605,0.0604,0.0604,0.0603,-0.0279,-0.0333,-0.0414,-0.0518,-0.0604,-0.0682,-0.0717,-0.0728,-0.0726,-0.0653,-0.0571,-0.0365,-0.0018,0.0349,0.0467,0.0722,0.0684,0.0801,0.0833,0.0836,0.0912,0.062,0.0667,0.0667,0.0666,0.0666,0.0666,0,-0.0304,-0.0373,-0.048,-0.0602,-0.0701,-0.0725,-0.0791,-0.0787,-0.0752,-0.0626,-0.0503,-0.0079,0.0249,0.0551,0.0899,0.1024,0.1057,0.1071,0.1119,0.1157,0.0908,0.0928,0.1033,0.1033,0.1033,0.1032,0.1032,0.1032,-0.0324,-0.0419,-0.048,-0.0647,-0.0732,-0.0813,-0.0835,-0.0797,-0.07,-0.0438,-0.0164,0.0053,0.0482,0.0979,0.1285,0.1303,0.1426,0.1382,0.1449,0.1304,0.1283,0.1262,0.1293,0.1473,0.1474,0.1703,0.1706,0.1707]}],[{"header":{"parameterUnit":"m.s-1","parameterCategory":2,"la1":30.2991,"la2":30.254,"lo1":-89.0895,"lo2":-89.0444,"dy":0.0017,"dx":0.0017,"nx":28,"ny":28,"refTime":"2024-05-15T21:00:00:Z","depth":"2","parameterNumber":2,"parameterNumberName":"U-component_of_CURRENTS"},"data":[0,0,0,0,0,0,0,0,0,0,0,0,0,0,0,0,0,0,0,0,0,0,0,0,0,0,0,0,0,0,0,0,0,0,0,0,0,0,0,0,0,0,0,0,0,0,0,0,0,0,0,0,0,0,0,0,0,0,-0.1216,-0.1216,0,-0.1222,-0.1222,-0.1222,-0.1223,-0.1223,-0.1223,-0.1223,-0.1195,-0.1195,-0.1194,0,0,0,0,0,0,0,0,0,0,0,0,0,-0.1183,-0.1184,-0.1216,-0.1216,-0.1216,-0.1222,-0.1222,-0.1222,-0.1223,-0.1223,-0.1223,-0.1223,-0.1196,-0.1195,-0.1194,0,0,0,0,0,0,0,0,0,0,0,0,0,-0.1192,-0.1184,-0.1216,-0.1219,-0.122,-0.1222,-0.1222,-0.1222,-0.1223,-0.1223,-0.1223,-0.1223,-0.1196,-0.1195,-0.1193,-0.1181,0,0,-0.1189,-0.1189,0,0,0,0,0,0,0,0,-0.1192,-0.1193,-0.1218,-0.1219,-0.122,-0.1224,-0.12,-0.1207,-0.1223,-0.1219,-0.1223,-0.1223,-0.1203,-0.1201,-0.1199,-0.1179,-0.1178,-0.1189,-0.1188,-0.1188,-0.1188,0,0,0,0,0,0,0,-0.1191,-0.1193,-0.1216,-0.1219,-0.122,-0.1213,-0.1215,-0.1202,-0.1207,-0.1219,-0.122,-0.1224,-0.1203,-0.12,-0.1198,-0.1178,-0.1189,-0.1188,-0.1187,-0.1187,-0.1131,-0.113,0,0,0,0,0,0,-0.1196,-0.1192,-0.1216,-0.1216,-0.1208,-0.1214,-0.1215,-0.122,-0.1208,-0.1208,-0.1224,-0.1224,-0.1202,-0.12,-0.1197,-0.1189,-0.1188,-0.1187,-0.1186,-0.1131,-0.113,-0.113,0,0,0,0,0,0,-0.1195,-0.1198,-0.1216,-0.1206,-0.1208,-0.1215,-0.122,-0.122,-0.1232,-0.1213,-0.1211,-0.1238,-0.1203,-0.1199,-0.119,-0.1187,-0.1186,-0.1185,-0.1132,-0.1131,-0.113,-0.1167,0,0,0,0,0,0,-0.1194,-0.1197,-0.1205,-0.1207,-0.1209,-0.1226,-0.122,-0.122,-0.1235,-0.1236,-0.1223,-0.122,-0.1202,-0.1192,-0.1188,-0.1185,-0.1184,-0.1133,-0.1132,-0.113,-0.1166,-0.1167,-0.1167,0,0,0,0,0,-0.1193,-0.1207,-0.1205,-0.1208,-0.1218,-0.1227,-0.1228,-0.1231,-0.1236,-0.1242,-0.1229,-0.1221,-0.118,-0.1191,-0.1187,-0.1183,-0.1134,-0.1132,-0.1131,-0.1166,-0.1167,-0.1167,0,0,0,0,0,0,-0.1199,-0.1208,-0.1206,-0.1223,-0.1227,-0.1229,-0.1239,-0.1241,-0.1237,-0.124,-0.122,-0.1216,-0.1199,-0.1186,-0.1198,-0.116,-0.1152,-0.115,-0.1181,-0.1181,-0.1182,-0.1208,-0.1183,0,0,0,0,0,-0.1203,-0.1213,-0.1219,-0.1231,-0.1238,-0.124,-0.1246,-0.1249,-0.1246,-0.1247,-0.1234,-0.1214,-0.1187,-0.1183,-0.1157,-0.1149,-0.1193,-0.1139,-0.114,-0.1141,-0.1157,-0.124,-0.1251,-0.1125,-0.1125,-0.1125,0,0,-0.1205,-0.1215,-0.1218,-0.1233,-0.1238,-0.1239,-0.1245,-0.1261,-0.1257,-0.1242,-0.1236,-0.1216,-0.1183,-0.1163,-0.1155,-0.1157,-0.1197,-0.1139,-0.114,-0.1156,-0.124,-0.1253,-0.1264,-0.1123,-0.1124,-0.1124,0,0,-0.1217,-0.1229,-0.1239,-0.1242,-0.1256,-0.1255,-0.1264,-0.1269,-0.1271,-0.126,-0.1241,-0.1231,-0.1193,-0.1176,-0.1159,-0.115,-0.1192,-0.1132,-0.1167,-0.1247,-0.126,-0.1271,-0.1345,-0.1363,-0.114,-0.114,-0.114,0,-0.1221,-0.1231,-0.1244,-0.1251,-0.1256,-0.1262,-0.127,-0.1265,-0.1264,-0.1287,-0.126,-0.1242,-0.1197,-0.1201,-0.1175,-0.1154,-0.1214,-0.1171,-0.1254,-0.1266,-0.1278,-0.135,-0.137,-0.1141,-0.1141,-0.1141,-0.1141,0,-0.1232,-0.1238,-0.1248,-0.1252,-0.1262,-0.127,-0.1269,-0.1286,-0.1286,-0.1293,-0.1309,-0.1263,-0.1263,-0.1231,-0.1187,-0.1236,-0.1257,-0.1246,-0.1265,-0.1294,-0.1367,-0.1387,-0.1144,-0.1143,-0.1142,-0.1142,0,0,-0.1241,-0.1252,-0.1253,-0.1263,-0.1264,-0.1281,-0.1287,-0.1317,-0.1371,-0.1342,-0.1413,-0.1321,-0.1334,-0.1313,-0.1278,-0.1323,-0.1416,-0.1315,-0.1319,-0.1412,-0.1615,-0.1421,-0.1424,-0.1442,-0.1446,-0.1448,-0.1636,0,-0.1243,-0.125,-0.1262,-0.1275,-0.1278,-0.1301,-0.1326,-0.1358,-0.1385,-0.1455,-0.1434,-0.1459,-0.1354,-0.1369,-0.1392,-0.1411,-0.1471,-0.1367,-0.1553,-0.1558,-0.1402,-0.144,-0.1289,-0.1425,-0.1656,-0.1659,-0.1661,0,-0.1242,-0.1249,-0.1252,-0.1309,-0.1323,-0.1333,-0.142,-0.1446,-0.1534,-0.1566,-0.16,-0.1606,-0.1619,-0.1548,-0.1619,-0.1569,-0.1592,-0.1612,-0.162,-0.1442,-0.1399,-0.1431,-0.1453,-0.1695,-0.1692,-0.169,-0.1687,0,-0.1226,-0.1255,-0.126,-0.1263,-0.1315,-0.1349,-0.1392,-0.1479,-0.1547,-0.1644,-0.1717,-0.1751,-0.1773,-0.1812,-0.1753,-0.1733,-0.1865,-0.1853,-0.1717,-0.1706,-0.161,-0.1581,-0.1955,-0.1955,-0.1955,-0.1954,-0.1954,0,-0.1211,-0.1225,-0.1254,-0.1249,-0.1313,-0.1356,-0.1457,-0.1515,-0.164,-0.1715,-0.1764,-0.1791,-0.1844,-0.1887,-0.1858,-0.1809,-0.1944,-0.1737,-0.174,-0.161,-0.158,-0.183,-0.1813,-0.1961,-0.196,-0.1958,-0.1957,0,-0.1176,-0.1189,-0.1206,-0.1261,-0.1292,-0.1332,-0.147,-0.1561,-0.1667,-0.1771,-0.1801,-0.1876,-0.1858,-0.19,-0.1963,-0.1914,-0.1913,-0.1872,-0.169,-0.1663,-0.1699,-0.1682,-0.1799,-0.1794,-0.179,-0.1786,-0.1783,0,-0.1153,-0.1145,-0.1195,-0.1229,-0.1248,-0.133,-0.1407,-0.1537,-0.1613,-0.1749,-0.1781,-0.1831,-0.1758,-0.1786,-0.1721,-0.1706,-0.1775,-0.16,-0.1492,-0.1691,-0.1685,-0.1674,-0.1663,-0.1418,-0.1412,-0.1408,-0.1404,0,-0.1103,-0.1115,-0.1136,-0.1179,-0.1241,-0.1325,-0.1416,-0.1471,-0.1601,-0.1652,-0.1631,-0.1593,-0.1582,-0.1431,-0.143,-0.1392,-0.1579,-0.1493,-0.1823,-0.1416,-0.1328,-0.1322,-0.1326,-0.1361,-0.1365,-0.1368,-0.137,-0.1372,-0.1069,-0.1068,-0.1082,-0.1126,-0.1207,-0.1243,-0.1255,-0.133,-0.1355,-0.1368,-0.1398,-0.1298,-0.1325,-0.1146,-0.1099,-0.1105,-0.1209,-0.1216,-0.1235,-0.1259,-0.1115,-0.1017,-0.0968,-0.097,-0.0972,-0.0973,-0.0975,0,-0.0987,-0.0995,-0.1036,-0.106,-0.1099,-0.1165,-0.1216,-0.118,-0.1095,-0.1127,-0.1058,-0.0916,-0.0811,-0.0848,-0.0767,-0.0773,-0.0822,-0.0761,-0.0835,-0.0875,-0.0912,-0.0755,-0.0512,-0.0511,-0.051,-0.0509,0,0,-0.0942,-0.092,-0.0924,-0.0913,-0.0955,-0.0931,-0.0913,-0.0834,-0.0814,-0.0704,-0.0664,-0.0722,-0.0776,-0.0625,-0.0607,-0.0541,-0.0706,-0.0513,-0.0878,-0.1001,-0.1036,-0.1159,-0.0957,0,0,0,0,0]},{"header":{"parameterUnit":"m.s-1","parameterCategory":2,"la1":30.2991,"la2":30.254,"lo1":-89.0895,"lo2":-89.0444,"dy":0.0017,"dx":0.0017,"nx":28,"ny":28,"refTime":"2024-05-15T21:00:00:Z","depth":"2","parameterNumber":3,"parameterNumberName":"V-component_of_CURRENTS"},"data":[0,0,0,0,0,0,0,0,0,0,0,0,0,0,0,0,0,0,0,0,0,0,0,0,0,0,0,0,0,0,0,0,0,0,0,0,0,0,0,0,0,0,0,0,0,0,0,0,0,0,0,0,0,0,0,0,0,0,-0.038,-0.0379,0,-0.0256,-0.0255,-0.0253,-0.0212,-0.0213,-0.0213,-0.0214,-0.0111,-0.0108,-0.0104,0,0,0,0,0,0,0,0,0,0,0,0,0,-0.0458,-0.0457,-0.038,-0.0378,-0.0377,-0.0256,-0.0254,-0.0252,-0.0212,-0.0213,-0.0214,-0.0215,-0.0112,-0.0108,-0.0104,0,0,0,0,0,0,0,0,0,0,0,0,0,-0.0385,-0.0457,-0.038,-0.0345,-0.0341,-0.0257,-0.0254,-0.0252,-0.0211,-0.0213,-0.0214,-0.0215,-0.0114,-0.0108,-0.0103,-0.0045,0,0,-0.0087,-0.0085,0,0,0,0,0,0,0,0,-0.0389,-0.0382,-0.0351,-0.0347,-0.0342,-0.0254,-0.0244,-0.0185,-0.0211,-0.0257,-0.0214,-0.0216,-0.0162,-0.0153,-0.0121,-0.0041,-0.0036,-0.0087,-0.0083,-0.0081,-0.008,0,0,0,0,0,0,0,-0.0395,-0.0386,-0.0327,-0.035,-0.0345,-0.0294,-0.0285,-0.0232,-0.0202,-0.0253,-0.0251,-0.0242,-0.0159,-0.0127,-0.0119,-0.0035,-0.0087,-0.0082,-0.0079,-0.0077,0.0067,0.0067,0,0,0,0,0,0,-0.0422,-0.0392,-0.0331,-0.0324,-0.0373,-0.0292,-0.0282,-0.0278,-0.0202,-0.0192,-0.0241,-0.024,-0.0135,-0.0125,-0.0115,-0.0067,-0.0081,-0.0076,-0.0073,0.0066,0.0067,0.0068,0,0,0,0,0,0,-0.0424,-0.0417,-0.0336,-0.0357,-0.0344,-0.0291,-0.0285,-0.0275,-0.0247,-0.0193,-0.0183,-0.0225,-0.0136,-0.0123,-0.0065,-0.0062,-0.0074,-0.0069,0.0065,0.0066,0.0067,0.0045,0,0,0,0,0,0,-0.0427,-0.0419,-0.0419,-0.036,-0.0344,-0.0284,-0.0284,-0.0272,-0.0242,-0.024,-0.0176,-0.0167,-0.0136,-0.0073,-0.006,-0.0055,-0.0065,0.0065,0.0066,0.0067,0.0045,0.0046,0.0046,0,0,0,0,0,-0.043,-0.0423,-0.0419,-0.0412,-0.0348,-0.0283,-0.0269,-0.0233,-0.024,-0.0215,-0.0178,-0.0169,-0.0057,-0.0067,-0.0052,-0.0046,0.0064,0.0065,0.0067,0.0045,0.0046,0.0046,0,0,0,0,0,0,-0.0451,-0.0417,-0.0412,-0.0395,-0.0345,-0.0278,-0.0252,-0.0234,-0.0182,-0.0186,-0.0145,-0.0132,-0.0085,-0.0057,-0.0069,-0.0002,-0.0001,0.0004,-0.0023,-0.0022,-0.0022,-0.0037,-0.006,0,0,0,0,0,-0.0459,-0.0448,-0.04,-0.0383,-0.0362,-0.0309,-0.028,-0.0255,-0.0206,-0.0185,-0.0143,-0.0103,-0.0063,-0.0038,0.0007,0.0057,0.0087,0.0066,0.0066,0.0066,0.0064,0.0113,0.0117,0.0072,0.0072,0.0072,0,0,-0.0462,-0.0442,-0.0435,-0.0387,-0.0347,-0.0301,-0.0293,-0.0248,-0.0214,-0.0181,-0.0123,-0.0095,-0.005,-0.0,0.0022,0.0022,0.0098,0.0068,0.0067,0.0066,0.0115,0.0119,0.0123,0.0073,0.0073,0.0073,0,0,-0.0448,-0.0445,-0.0423,-0.0383,-0.033,-0.0297,-0.0289,-0.0223,-0.0201,-0.014,-0.0122,-0.0091,-0.0013,0.0013,0.0035,0.0066,0.0096,0.0073,0.0067,0.0115,0.0119,0.0122,0.0176,0.0184,0.0074,0.0074,0.0074,0,-0.0451,-0.0423,-0.0402,-0.0361,-0.0333,-0.0299,-0.026,-0.022,-0.0146,-0.0133,-0.0127,-0.0041,-0.0008,0.0037,0.004,0.0065,0.01,0.0061,0.0114,0.0118,0.0123,0.0176,0.0186,0.0073,0.0073,0.0073,0.0074,0,-0.041,-0.0387,-0.0367,-0.0316,-0.0282,-0.0241,-0.0196,-0.0167,-0.015,-0.0116,-0.0072,-0.0023,0.0018,0.0031,0.0046,0.0085,0.0104,0.0107,0.011,0.0126,0.0182,0.0192,0.0072,0.0072,0.0073,0.0073,0,0,-0.0407,-0.0353,-0.0344,-0.033,-0.0261,-0.0236,-0.0189,-0.0144,-0.0135,-0.0074,-0.0049,0.0005,0.0009,0.0034,0.0054,0.0092,0.0149,0.0107,0.011,0.0153,0.0265,0.0226,0.0234,0.0162,0.0163,0.0165,0.0295,0,-0.0376,-0.0326,-0.0299,-0.0252,-0.0224,-0.0195,-0.0163,-0.0127,-0.0096,-0.006,-0.0026,0.001,0.0018,0.0026,0.0067,0.0129,0.0175,0.0114,0.0248,0.0252,0.021,0.0244,0.0224,0.0333,0.0306,0.0307,0.0309,0,-0.0334,-0.0312,-0.0272,-0.0251,-0.0239,-0.0212,-0.019,-0.0156,-0.0105,-0.0084,-0.0045,-0.001,0.0049,0.005,0.0172,0.0134,0.0193,0.0243,0.025,0.0226,0.0233,0.0312,0.0354,0.0327,0.0325,0.0324,0.0323,0,-0.035,-0.0297,-0.0284,-0.0264,-0.0224,-0.0222,-0.0211,-0.017,-0.0159,-0.0103,-0.008,-0.0006,0.004,0.0122,0.0213,0.0201,0.0352,0.0352,0.038,0.0379,0.0393,0.039,0.0439,0.0439,0.0438,0.0438,0.0438,0,-0.0327,-0.0312,-0.0299,-0.0286,-0.0295,-0.0258,-0.0263,-0.024,-0.02,-0.018,-0.0106,-0.0063,0.006,0.0156,0.0231,0.0338,0.0372,0.0387,0.0409,0.0385,0.038,0.0392,0.0385,0.0443,0.0442,0.0441,0.044,0,-0.0328,-0.0313,-0.0303,-0.0291,-0.0299,-0.0309,-0.0313,-0.0316,-0.0264,-0.0227,-0.0209,-0.0086,0.0023,0.0142,0.0293,0.0361,0.0462,0.0489,0.045,0.0463,0.0458,0.0449,0.0548,0.0547,0.0547,0.0547,0.0547,0,-0.0318,-0.0314,-0.0329,-0.0355,-0.0353,-0.0372,-0.0392,-0.0359,-0.035,-0.0244,-0.0224,-0.0102,-0.0028,0.0181,0.0309,0.0445,0.045,0.0519,0.0475,0.0458,0.047,0.0461,0.0452,0.0508,0.0507,0.0507,0.0506,0,-0.031,-0.0325,-0.0334,-0.0393,-0.0426,-0.0454,-0.0468,-0.0469,-0.0411,-0.0366,-0.0278,-0.0207,-0.0009,0.014,0.0317,0.0389,0.0489,0.0511,0.0537,0.0454,0.0422,0.0433,0.0426,0.0503,0.0503,0.0504,0.0504,0.0504,-0.0323,-0.0344,-0.0384,-0.044,-0.0483,-0.0524,-0.0543,-0.0535,-0.0519,-0.042,-0.0334,-0.0192,-0.0021,0.0209,0.0323,0.0443,0.0442,0.0499,0.05,0.0502,0.0444,0.0411,0.048,0.0481,0.0481,0.0481,0.0481,0,-0.0345,-0.0385,-0.0438,-0.0503,-0.0558,-0.0568,-0.0588,-0.0582,-0.0562,-0.0441,-0.0351,-0.0159,0.002,0.0182,0.0364,0.0467,0.0471,0.0479,0.0481,0.0483,0.0486,0.0427,0.046,0.046,0.0461,0.0461,0,0,-0.0366,-0.0425,-0.0457,-0.0557,-0.0605,-0.0658,-0.0666,-0.0627,-0.0546,-0.0452,-0.0322,-0.0146,0.0052,0.0182,0.03,0.0391,0.0407,0.0389,0.0396,0.0385,0.0387,0.0486,0.0397,0,0,0,0,0]}],[{"header":{"parameterUnit":"m.s-1","parameterCategory":2,"la1":30.2991,"la2":30.254,"lo1":-89.0895,"lo2":-89.0444,"dy":0.0017,"dx":0.0017,"nx":28,"ny":28,"refTime":"2024-05-15T21:00:00:Z","depth":"4","parameterNumber":2,"parameterNumberName":"U-component_of_CURRENTS"},"data":[0,0,0,0,0,0,0,0,0,0,0,0,0,0,0,0,0,0,0,0,0,0,0,0,0,0,0,0,0,0,0,0,0,0,0,0,0,0,0,0,0,0,0,0,0,0,0,0,0,0,0,0,0,0,0,0,0,0,-0.0454,-0.0454,0,-0.0495,-0.0496,-0.0496,-0.0535,-0.0535,-0.0535,-0.0536,-0.0598,-0.0599,-0.06,0,0,0,0,0,0,0,0,0,0,0,0,0,-0.0404,-0.0405,-0.0454,-0.0454,-0.0455,-0.0495,-0.0496,-0.0496,-0.0535,-0.0535,-0.0536,-0.0536,-0.0597,-0.0599,-0.0601,0,0,0,0,0,0,0,0,0,0,0,0,0,-0.0435,-0.0405,-0.0454,-0.0478,-0.048,-0.0495,-0.0496,-0.0496,-0.0535,-0.0535,-0.0536,-0.0536,-0.0597,-0.0599,-0.0601,-0.0603,0,0,-0.0607,-0.0608,0,0,0,0,0,0,0,0,-0.0433,-0.0437,-0.0474,-0.0476,-0.0479,-0.0509,-0.0501,-0.0533,-0.0535,-0.0516,-0.0536,-0.0536,-0.0569,-0.0573,-0.0581,-0.0606,-0.0608,-0.0607,-0.0608,-0.0609,-0.061,0,0,0,0,0,0,0,-0.0431,-0.0435,-0.0472,-0.0474,-0.0477,-0.0484,-0.049,-0.0507,-0.054,-0.0517,-0.052,-0.0522,-0.0571,-0.0579,-0.0583,-0.0609,-0.0607,-0.0609,-0.061,-0.0611,-0.075,-0.0753,0,0,0,0,0,0,-0.0423,-0.0433,-0.047,-0.0473,-0.0455,-0.0485,-0.0491,-0.05,-0.054,-0.0546,-0.0521,-0.0523,-0.0576,-0.0581,-0.0586,-0.07,-0.0609,-0.0611,-0.0612,-0.0748,-0.0751,-0.0754,0,0,0,0,0,0,-0.0421,-0.0426,-0.0469,-0.0452,-0.0458,-0.0485,-0.0495,-0.05,-0.0531,-0.0542,-0.0549,-0.0548,-0.0576,-0.0583,-0.0636,-0.0698,-0.0612,-0.0614,-0.0745,-0.0749,-0.0752,-0.0858,0,0,0,0,0,0,-0.042,-0.0425,-0.0439,-0.0452,-0.0459,-0.0486,-0.0495,-0.0501,-0.0529,-0.0533,-0.0567,-0.0572,-0.0577,-0.0633,-0.0638,-0.07,-0.0615,-0.0742,-0.0747,-0.0751,-0.0852,-0.0865,-0.0877,0,0,0,0,0,-0.0418,-0.0432,-0.044,-0.0445,-0.0474,-0.0486,-0.0491,-0.0512,-0.053,-0.0542,-0.0583,-0.0572,-0.0667,-0.0636,-0.0641,-0.0705,-0.074,-0.0745,-0.0751,-0.0846,-0.0863,-0.0877,0,0,0,0,0,0,-0.0417,-0.0438,-0.0446,-0.0467,-0.0479,-0.0492,-0.0513,-0.0524,-0.0565,-0.0584,-0.0597,-0.0606,-0.0691,-0.0672,-0.0639,-0.076,-0.0704,-0.0711,-0.0775,-0.079,-0.0803,-0.0783,-0.0617,0,0,0,0,0,-0.0421,-0.044,-0.0454,-0.047,-0.0483,-0.0503,-0.0516,-0.053,-0.056,-0.058,-0.0617,-0.0659,-0.0713,-0.0729,-0.0773,-0.0818,-0.0774,-0.0864,-0.0877,-0.0888,-0.0876,-0.089,-0.0902,-0.0772,-0.0772,-0.0772,0,0,-0.0428,-0.0438,-0.0451,-0.0471,-0.049,-0.0521,-0.0514,-0.0542,-0.0592,-0.058,-0.0679,-0.0715,-0.0741,-0.0819,-0.0851,-0.0809,-0.0897,-0.0895,-0.0904,-0.0886,-0.0897,-0.0909,-0.092,-0.0776,-0.0775,-0.0775,0,0,-0.0435,-0.046,-0.0478,-0.05,-0.0526,-0.0542,-0.0555,-0.0596,-0.0644,-0.0725,-0.0749,-0.0803,-0.0888,-0.0908,-0.093,-0.1026,-0.0981,-0.106,-0.109,-0.1106,-0.1116,-0.1124,-0.1056,-0.1058,-0.1047,-0.1047,-0.1047,0,-0.0441,-0.0465,-0.0483,-0.051,-0.0538,-0.0558,-0.0593,-0.0645,-0.0706,-0.0753,-0.0776,-0.0907,-0.0929,-0.0998,-0.1046,-0.1054,-0.1032,-0.1032,-0.112,-0.1128,-0.1135,-0.1063,-0.1063,-0.1053,-0.1052,-0.1051,-0.1051,0,-0.0463,-0.0494,-0.0511,-0.0559,-0.0591,-0.0622,-0.0688,-0.0759,-0.0829,-0.0868,-0.0984,-0.102,-0.1085,-0.1115,-0.1118,-0.1185,-0.1141,-0.1151,-0.1077,-0.1154,-0.1073,-0.1072,-0.1061,-0.1059,-0.1057,-0.1056,0,0,-0.0449,-0.0511,-0.0521,-0.0551,-0.0623,-0.0645,-0.0761,-0.0841,-0.09,-0.1004,-0.107,-0.1187,-0.1198,-0.122,-0.1228,-0.1229,-0.1257,-0.1217,-0.1215,-0.1137,-0.1242,-0.1209,-0.1203,-0.1301,-0.1302,-0.1303,-0.1155,0,-0.0461,-0.0498,-0.0546,-0.0612,-0.0641,-0.0728,-0.0815,-0.0902,-0.0987,-0.106,-0.1127,-0.1204,-0.1242,-0.1274,-0.1296,-0.1275,-0.1264,-0.1292,-0.1188,-0.1182,-0.1137,-0.1205,-0.1307,-0.1153,-0.1153,-0.1152,-0.1152,0,-0.0472,-0.0492,-0.0546,-0.0627,-0.0653,-0.0729,-0.0858,-0.0943,-0.1058,-0.1127,-0.1217,-0.1244,-0.1295,-0.1308,-0.1314,-0.134,-0.1308,-0.1271,-0.1265,-0.1194,-0.1149,-0.1068,-0.1148,-0.1148,-0.1149,-0.1149,-0.1149,0,-0.0425,-0.0501,-0.0538,-0.0571,-0.0669,-0.0766,-0.0859,-0.0984,-0.1035,-0.1183,-0.1182,-0.128,-0.1282,-0.132,-0.1292,-0.1316,-0.124,-0.1256,-0.1174,-0.1166,-0.1187,-0.1179,-0.1245,-0.1245,-0.1245,-0.1246,-0.1246,0,-0.041,-0.0449,-0.0539,-0.0567,-0.0641,-0.0758,-0.0869,-0.0977,-0.1073,-0.1081,-0.1216,-0.1203,-0.1292,-0.1257,-0.1273,-0.1215,-0.124,-0.1176,-0.1148,-0.123,-0.123,-0.1182,-0.1177,-0.124,-0.1241,-0.1242,-0.1243,0,-0.037,-0.0413,-0.0457,-0.0572,-0.0624,-0.0703,-0.0866,-0.0893,-0.1032,-0.1039,-0.1076,-0.1126,-0.1137,-0.1154,-0.1149,-0.114,-0.112,-0.1082,-0.1107,-0.1083,-0.1023,-0.1025,-0.0977,-0.0975,-0.0974,-0.0972,-0.0971,0,-0.0356,-0.037,-0.0448,-0.0471,-0.0552,-0.0687,-0.0728,-0.0882,-0.0889,-0.0972,-0.0909,-0.0947,-0.0983,-0.093,-0.1009,-0.1021,-0.1027,-0.0976,-0.1073,-0.1028,-0.1006,-0.101,-0.1015,-0.0969,-0.0968,-0.0968,-0.0968,0,-0.0324,-0.0349,-0.0374,-0.0403,-0.0457,-0.0499,-0.0599,-0.06,-0.0719,-0.0769,-0.0783,-0.084,-0.0809,-0.0889,-0.0891,-0.0913,-0.1014,-0.096,-0.0964,-0.1054,-0.1017,-0.0997,-0.1003,-0.0962,-0.0963,-0.0963,-0.0964,0,-0.0308,-0.0298,-0.0306,-0.0348,-0.0347,-0.034,-0.0428,-0.0463,-0.0504,-0.0601,-0.0598,-0.0697,-0.0768,-0.0824,-0.084,-0.0867,-0.0879,-0.0868,-0.0877,-0.0884,-0.0942,-0.0886,-0.0765,0,0,0,0,0,-0.0286,-0.0262,-0.0258,-0.0263,-0.0237,-0.0255,-0.0301,-0.0377,-0.0457,-0.043,-0.0546,-0.0565,-0.0666,-0.0729,-0.0745,-0.079,-0.086,-0.0803,-0.0845,-0.0931,-0.0938,-0.1025,0,0,0,0,0,0,-0.0258,-0.0244,-0.0226,-0.016,-0.0156,-0.0119,-0.0155,-0.0223,-0.0257,-0.0367,-0.0429,-0.0516,-0.0617,-0.0643,-0.0726,-0.0742,-0.0757,-0.0874,-0.0872,-0.0927,-0.0933,-0.0938,-0.1031,0,0,0,0,0]},{"header":{"parameterUnit":"m.s-1","parameterCategory":2,"la1":30.2991,"la2":30.254,"lo1":-89.0895,"lo2":-89.0444,"dy":0.0017,"dx":0.0017,"nx":28,"ny":28,"refTime":"2024-05-15T21:00:00:Z","depth":"4","parameterNumber":3,"parameterNumberName":"V-component_of_CURRENTS"},"data":[0,0,0,0,0,0,0,0,0,0,0,0,0,0,0,0,0,0,0,0,0,0,0,0,0,0,0,0,0,0,0,0,0,0,0,0,0,0,0,0,0,0,0,0,0,0,0,0,0,0,0,0,0,0,0,0,0,0,-0.0092,-0.0092,0,-0.0095,-0.0095,-0.0095,-0.0071,-0.007,-0.0069,-0.0069,-0.0054,-0.0054,-0.0054,0,0,0,0,0,0,0,0,0,0,0,0,0,-0.0098,-0.0098,-0.0092,-0.0092,-0.0092,-0.0095,-0.0095,-0.0095,-0.0071,-0.007,-0.0069,-0.0068,-0.0054,-0.0054,-0.0054,0,0,0,0,0,0,0,0,0,0,0,0,0,-0.0099,-0.0098,-0.0092,-0.0079,-0.0078,-0.0095,-0.0095,-0.0095,-0.0071,-0.007,-0.0069,-0.0068,-0.0053,-0.0054,-0.0054,-0.0079,0,0,-0.0056,-0.0056,0,0,0,0,0,0,0,0,-0.0098,-0.0098,-0.0081,-0.008,-0.0079,-0.0081,-0.0092,-0.0089,-0.0071,-0.0075,-0.0069,-0.0067,-0.0061,-0.0061,-0.0065,-0.0079,-0.0078,-0.0056,-0.0056,-0.0056,-0.0056,0,0,0,0,0,0,0,-0.0098,-0.0098,-0.0094,-0.0081,-0.008,-0.0085,-0.0084,-0.0092,-0.0074,-0.0074,-0.0072,-0.0072,-0.0061,-0.0065,-0.0065,-0.0078,-0.0056,-0.0056,-0.0056,-0.0056,-0.0067,-0.0067,0,0,0,0,0,0,-0.0096,-0.0098,-0.0093,-0.0094,-0.0085,-0.0086,-0.0084,-0.0082,-0.0075,-0.0072,-0.0073,-0.0071,-0.0065,-0.0064,-0.0064,-0.0041,-0.0056,-0.0057,-0.0057,-0.0067,-0.0067,-0.0067,0,0,0,0,0,0,-0.0096,-0.0096,-0.0093,-0.0096,-0.0095,-0.0087,-0.0084,-0.0083,-0.0078,-0.0074,-0.0071,-0.0069,-0.0064,-0.0064,-0.0065,-0.0042,-0.0057,-0.0057,-0.0067,-0.0067,-0.0067,-0.0029,0,0,0,0,0,0,-0.0096,-0.0096,-0.0094,-0.0095,-0.0095,-0.011,-0.0085,-0.0083,-0.008,-0.0077,-0.007,-0.0068,-0.0063,-0.0065,-0.0066,-0.0043,-0.0057,-0.0067,-0.0067,-0.0067,-0.003,-0.0027,-0.0025,0,0,0,0,0,-0.0097,-0.01,-0.0094,-0.0093,-0.0093,-0.0111,-0.0112,-0.0102,-0.0081,-0.0091,-0.0076,-0.0068,-0.0065,-0.0066,-0.0067,-0.0043,-0.0067,-0.0067,-0.0067,-0.0031,-0.0028,-0.0025,0,0,0,0,0,0,-0.0102,-0.0098,-0.0091,-0.0092,-0.0103,-0.0106,-0.011,-0.0102,-0.0099,-0.009,-0.0076,-0.0074,-0.006,-0.007,-0.007,-0.0049,-0.0062,-0.0062,-0.0034,-0.0031,-0.0029,-0.0052,-0.0058,0,0,0,0,0,-0.0104,-0.0105,-0.0107,-0.011,-0.0113,-0.011,-0.0113,-0.011,-0.0108,-0.0105,-0.0094,-0.0082,-0.0065,-0.0063,-0.0058,-0.0059,-0.0073,-0.0044,-0.0042,-0.004,-0.0061,-0.0039,-0.0036,-0.0067,-0.0067,-0.0067,0,0,-0.0108,-0.0105,-0.0106,-0.0112,-0.0114,-0.014,-0.0109,-0.0119,-0.0134,-0.0105,-0.0111,-0.0075,-0.0063,-0.005,-0.0045,-0.0054,-0.0042,-0.004,-0.0037,-0.0061,-0.0039,-0.0036,-0.0033,-0.0067,-0.0067,-0.0067,0,0,-0.0129,-0.0113,-0.0128,-0.0142,-0.0151,-0.0154,-0.0157,-0.0157,-0.0147,-0.0143,-0.0116,-0.0086,-0.0063,-0.0057,-0.0046,-0.0041,-0.0026,-0.0012,-0.0022,0.0001,0.0004,0.0006,-0.0022,-0.0022,-0.0015,-0.0015,-0.0015,0,-0.0133,-0.0153,-0.0138,-0.0165,-0.0182,-0.0163,-0.0197,-0.0193,-0.0193,-0.0184,-0.0142,-0.0092,-0.0074,-0.0065,-0.0038,-0.0036,-0.0023,-0.0026,0.0006,0.0008,0.001,-0.002,-0.0021,-0.0013,-0.0013,-0.0014,-0.0014,0,-0.0174,-0.0196,-0.0207,-0.0234,-0.0251,-0.0276,-0.0275,-0.0277,-0.0238,-0.0221,-0.018,-0.0136,-0.0097,-0.0074,-0.0041,-0.0015,-0.0011,0.0014,0.0002,0.0015,-0.0017,-0.0019,-0.001,-0.0011,-0.0012,-0.0012,0,0,-0.0173,-0.0225,-0.0231,-0.0265,-0.029,-0.0313,-0.0331,-0.0342,-0.0344,-0.029,-0.0279,-0.0204,-0.0134,-0.012,-0.0068,-0.0047,-0.0008,0.0009,0.001,-0.0015,0.003,0.0109,0.0114,0.0059,0.0059,0.0059,-0.0004,0,-0.0212,-0.0276,-0.0292,-0.0366,-0.0399,-0.0403,-0.0425,-0.0427,-0.0388,-0.0372,-0.0299,-0.025,-0.0163,-0.0107,-0.0066,-0.0025,-0.0006,0.0005,0.0014,0.0012,0.0088,0.0117,0.006,-0.0005,-0.0005,-0.0006,-0.0006,0,-0.0246,-0.0288,-0.0358,-0.043,-0.0444,-0.0486,-0.051,-0.0521,-0.0492,-0.0444,-0.0369,-0.0297,-0.0242,-0.0158,-0.009,-0.0066,-0.0008,0.0014,0.0013,0.0069,0.009,-0.0018,-0.0009,-0.0009,-0.0008,-0.0008,-0.0008,0,-0.0251,-0.0336,-0.0393,-0.042,-0.0492,-0.0523,-0.0544,-0.0537,-0.0537,-0.0473,-0.0445,-0.0359,-0.0302,-0.0219,-0.009,-0.008,-0.0026,-0.0026,0.0072,0.0075,0.0002,0.0,0.0015,0.0015,0.0015,0.0015,0.0016,0,-0.0279,-0.0337,-0.0404,-0.0444,-0.0517,-0.054,-0.0586,-0.0582,-0.0566,-0.0544,-0.0457,-0.0403,-0.0294,-0.0221,-0.0127,-0.001,-0.0043,0.0063,0.0079,0.0016,0.0016,-0.0001,-0.0002,0.0013,0.0014,0.0014,0.0014,0,-0.0281,-0.0328,-0.0406,-0.0488,-0.0526,-0.0562,-0.0629,-0.0636,-0.0611,-0.0582,-0.0549,-0.0451,-0.0325,-0.0236,-0.0126,-0.0056,0.0031,0.0085,-0.0014,-0.0003,0.0098,0.01,0.0118,0.0121,0.0123,0.0125,0.0127,0,-0.0291,-0.0327,-0.0431,-0.0488,-0.0537,-0.0601,-0.0635,-0.0641,-0.062,-0.0577,-0.0541,-0.0443,-0.0345,-0.0177,-0.0065,0.006,0.0111,0.0108,0.0123,0.0103,0.0115,0.0113,0.0112,0.013,0.0131,0.0131,0.0132,0,-0.0307,-0.0335,-0.0389,-0.0491,-0.0555,-0.0617,-0.0648,-0.065,-0.0607,-0.0616,-0.0494,-0.039,-0.0268,-0.013,-0.0009,0.0093,0.0075,0.0131,0.0125,0.0139,0.0117,0.0127,0.0123,0.014,0.0139,0.0138,0.0137,0,-0.0307,-0.033,-0.039,-0.048,-0.0557,-0.0586,-0.0626,-0.0592,-0.0577,-0.0517,-0.0467,-0.034,-0.0274,-0.0109,0.0013,0.0117,0.0119,0.0116,0.0111,0.0104,0.0153,0.0127,0.0164,0,0,0,0,0,-0.0302,-0.0318,-0.0391,-0.0461,-0.0528,-0.0568,-0.0606,-0.0618,-0.0595,-0.0497,-0.0481,-0.0336,-0.0157,-0.0085,0.0033,0.0033,0.0122,0.0169,0.0113,0.0182,0.0173,0.0246,0,0,0,0,0,0,-0.0297,-0.0342,-0.0361,-0.0412,-0.0461,-0.0504,-0.0526,-0.0524,-0.0463,-0.0444,-0.034,-0.0308,-0.0128,-0.0204,0.0043,0.007,0.0046,0.0247,0.0249,0.0187,0.0179,0.0172,0.0244,0,0,0,0,0]}]]